Regional Weather Roundup
Issued by NWS

Home | Current Version | Previous Version | Graphics & Text | Print | Product List | Glossary On
Versions: 1 2 3 4 5 6 7 8 9 10 11 12 13 14 15 16 17 18 19 20 21 22 23 24 25 26 27 28 29 30 31 32 33 34 35 36 37 38 39 40 41 42 43 44 45 46 47 48 49 50
000
ASUS43 KIND 201409
RWRIN

WEATHER ROUNDUP FOR INDIANA
NATIONAL WEATHER SERVICE INDIANAPOLIS IN
1000 AM EDT THU JUL 20 2017

NOTE: "FAIR" INDICATES FEW OR NO CLOUDS BELOW 12,000 FEET WITH NO
SIGNIFICANT WEATHER AND/OR OBSTRUCTIONS TO VISIBILITY.

* - STATION DOES NOT REPORT WEATHER SUCH AS PRECIPITATION OR FOG.

+ - STATION NOT QUALITY CONTROLLED BY THE NATIONAL WEATHER SERVICE.
    USE DATA WITH CAUTION...ESPECIALLY DEWPOINT AND RELATIVE
    HUMIDITY OBSERVATIONS.

INZ001>003-010>013-019-020-201500-
NORTHWEST INDIANA

CITY           SKY/WX    TMP DP  RH WIND       PRES   REMARKS
GARY /AIRPORT/ RAIN      72  72 100 SE14      30.06F
KNOX *+        CLOUDY    68  68 100 CALM      30.10F
LA PORTE +     HVY RAIN  69  68  97 CALM      30.11S
MICHIGAN CITY+ HVY RAIN  68  68 100 N3        30.12R
MONTICELLO +   LGT RAIN  71  69  95 E3        30.08S
RENSSELAER +   CLOUDY    70  68  94 NE3       30.12R
VALPARAISO     HVY RAIN  70  68  93 W9        30.14R FOG

$$

LMZ046-743>745-201500-
SOUTHERN LAKE MICHIGAN

STATION/POSITION TIME  TEMP    WIND        PRES    WAVE
                       AIR SEA DIR/SP/G            HT
                 (UTC) (F)     (DEG/KT/KT) (MB)    (FT)
BURNS HARBOR     1340   70      10/  7/  9 1020.0R
MICHIGAN CITY    1340   69     270/  6/  7   N/A
5NW MICH CITY    1400   70 74  130/  4/ 10   N/A     1

$$

INZ004-005-014>016-021>024-201500-
NORTH CENTRAL INDIANA

CITY           SKY/WX    TMP DP  RH WIND       PRES   REMARKS
ELKHART        LGT RAIN  70  68  94 W6        30.09S
LOGANSPORT +   LGT RAIN  72  70  94 NE3       30.11R
PERU/GRISSOM   LGT RAIN  74  73  95 N6        30.10R
ROCHESTER +    RAIN      72  72 100 CALM      30.12S
SOUTH BEND     RAIN      69  68  96 NW7       30.11R FOG
WARSAW +       RAIN      70  68  94 SW5       30.12R

$$

INZ006>009-017-018-025>027-201500-
NORTHEAST INDIANA

CITY           SKY/WX    TMP DP  RH WIND       PRES   REMARKS
ANGOLA *+      SUNNY     73  66  78 W10       30.07S
AUBURN +       CLOUDY    73  64  73 SW6       30.09S
FORT WAYNE     RAIN      74  69  85 W9        30.11S
HUNTINGTON +   CLOUDY    73  71  95 CALM      30.12S
KENDALLVILLE + CLOUDY   N/A N/A N/A W10       30.09S

$$

INZ028-029-035-036-043>045-051>053-201500-
WEST CENTRAL INDIANA

CITY           SKY/WX    TMP DP  RH WIND       PRES   REMARKS
GREENCASTLE +  PTSUNNY   77  73  88 CALM      30.11S
LAFAYETTE      LGT RAIN  73  71  93 CALM      30.09R
TERRE HAUTE    CLOUDY    81  73  76 SW7       30.09R

$$

INZ030>032-037>040-046>048-054>057-064-065-201500-
CENTRAL INDIANA

CITY           SKY/WX    TMP DP  RH WIND       PRES   REMARKS
ANDERSON       SUNNY     81  72  74 CALM        N/A
CP ATTERBURY + CLOUDY    77  72  83 SW3       30.12R
COLUMBUS       PTSUNNY   77  72  83 SW6       30.12R
FRANKFORT +    CLOUDY    78  74  88 CALM      30.12R
GREENWOOD *+   CLOUDY    78  71  80 SW5       30.12R
INDIANAPOLIS   CLOUDY    78  72  81 SW8       30.10R
-EAGLE CREEK   CLOUDY    79  71  76 SW7       30.10R
KOKOMO +       CLOUDY    75  71  87 SE5       30.11S
MARION +       CLOUDY    73  70  88 S3        30.12S
MT COMFORT *+  CLOUDY    77  73  88 CALM      30.12R
SHELBYVILLE    CLOUDY    78  72  81 S5        30.11R
ZIONSVILLE +   CLOUDY    76  72  87 SW5       30.12R

$$

INZ033-034-041-042-049-050-058-059-201500-
EAST CENTRAL INDIANA

CITY           SKY/WX    TMP DP  RH WIND       PRES   REMARKS
MUNCIE         CLOUDY    80  72  76 SW5       30.12R
RICHMOND +     CLOUDY    73  72  94 SW5       30.15R

$$

INZ060-061-067>069-081>083-085>088-201500-
SOUTHWEST INDIANA

CITY           SKY/WX    TMP DP  RH WIND       PRES   REMARKS
EVANSVILLE     CLOUDY    86  73  65 W7        30.11S
HUNTINGBURG *+ MOSUNNY   82  75  79 W6        30.12S

$$

INZ062-063-066-070>080-084-089>092-201500-
SOUTH CENTRAL AND SOUTHEAST INDIANA

CITY           SKY/WX    TMP DP  RH WIND       PRES   REMARKS
BEDFORD +      CLOUDY    81  72  74 SW5       30.11R
BLOOMINGTON    CLOUDY    81  72  74 W9        30.12R
MADISON *+     MOSUNNY   79  72  78 S3        30.14S
NORTH VERNON + PTSUNNY   77  72  83 S5        30.13S
SEYMOUR +      PTSUNNY   79  73  83 S5        30.11R

$$




USA.gov is the U.S. government's official web portal to all federal, state and local government web resources and services.